[[{"header":{"parameterUnit":"m.s-1","parameterCategory":2,"la1":30.2991,"la2":30.254,"lo1":-89.0895,"lo2":-89.0444,"dy":0.0017,"dx":0.0017,"nx":28,"ny":28,"refTime":"2024-03-15T09:00:00:Z","depth":"0","parameterNumber":2,"parameterNumberName":"U-component_of_CURRENTS"},"data":[0,0,0,0,0,0,0,0,0,0,0,0,0,0,0,0,0,0,0,0,0,0,0,0,0,0,0,0,0,0,0,0,0,0,0,0,0,0,0,0,0,0,0,0,0,0,0,0,0,0,0,0,0,0,0,0,0,0,-0.2608,-0.2607,0,-0.2539,-0.2538,-0.2537,-0.2524,-0.2524,-0.2525,-0.2526,-0.2366,-0.2361,-0.2356,0,0,0,0,0,0,0,0,0,0,0,0,0,-0.2612,-0.2612,-0.2608,-0.2607,-0.2607,-0.254,-0.2538,-0.2537,-0.2523,-0.2524,-0.2525,-0.2526,-0.2367,-0.2361,-0.2355,0,0,0,0,0,0,0,0,0,0,0,0,0,-0.2581,-0.2612,-0.2608,-0.2594,-0.2592,-0.254,-0.2538,-0.2537,-0.2523,-0.2524,-0.2526,-0.2527,-0.2369,-0.2362,-0.2355,-0.2283,0,0,-0.2332,-0.2328,0,0,0,0,0,0,0,0,-0.2582,-0.258,-0.2597,-0.2595,-0.2593,-0.2544,-0.2481,-0.2449,-0.2523,-0.2546,-0.2526,-0.2527,-0.2418,-0.2407,-0.2388,-0.2276,-0.2269,-0.2331,-0.2326,-0.2323,-0.2321,0,0,0,0,0,0,0,-0.2585,-0.2582,-0.2577,-0.2596,-0.2594,-0.2552,-0.255,-0.2474,-0.2472,-0.2544,-0.2544,-0.2541,-0.2416,-0.2395,-0.2384,-0.2267,-0.2331,-0.2324,-0.232,-0.2317,-0.2201,-0.2203,0,0,0,0,0,0,-0.2604,-0.2585,-0.258,-0.2576,-0.2594,-0.2552,-0.2549,-0.2556,-0.2475,-0.2465,-0.254,-0.2541,-0.2407,-0.2392,-0.2378,-0.2384,-0.2323,-0.2316,-0.2312,-0.22,-0.2202,-0.2203,0,0,0,0,0,0,-0.2605,-0.2605,-0.2582,-0.258,-0.2575,-0.2552,-0.2559,-0.2554,-0.2539,-0.2473,-0.2461,-0.2532,-0.2408,-0.2388,-0.2337,-0.2374,-0.2313,-0.2306,-0.2198,-0.22,-0.2202,-0.2334,0,0,0,0,0,0,-0.2605,-0.2606,-0.2606,-0.2582,-0.2576,-0.2575,-0.2558,-0.2552,-0.2537,-0.2537,-0.2461,-0.2448,-0.2407,-0.2349,-0.233,-0.2362,-0.23,-0.2196,-0.2199,-0.2202,-0.2328,-0.234,-0.2351,0,0,0,0,0,-0.2606,-0.2612,-0.2607,-0.2606,-0.2582,-0.2576,-0.257,-0.2553,-0.2535,-0.254,-0.2493,-0.245,-0.2354,-0.2343,-0.232,-0.2352,-0.2195,-0.2198,-0.2202,-0.2322,-0.2338,-0.2351,0,0,0,0,0,0,-0.2604,-0.261,-0.2605,-0.2609,-0.2604,-0.2576,-0.2567,-0.2552,-0.2515,-0.2508,-0.2443,-0.2427,-0.2403,-0.2351,-0.234,-0.233,-0.2276,-0.2275,-0.2376,-0.2389,-0.2401,-0.2445,-0.2294,0,0,0,0,0,-0.2607,-0.2613,-0.2613,-0.261,-0.2612,-0.2585,-0.2574,-0.257,-0.2538,-0.2524,-0.2475,-0.2427,-0.2395,-0.2372,-0.2326,-0.2296,-0.2233,-0.231,-0.2322,-0.2332,-0.2355,-0.2307,-0.2317,-0.2214,-0.2214,-0.2214,0,0,-0.2596,-0.2602,-0.26,-0.2609,-0.2595,-0.2624,-0.2581,-0.2577,-0.2604,-0.2506,-0.2506,-0.245,-0.2394,-0.2385,-0.2371,-0.2348,-0.2319,-0.2336,-0.2345,-0.2363,-0.2312,-0.2322,-0.2331,-0.2216,-0.2216,-0.2215,0,0,-0.2607,-0.2594,-0.2621,-0.2631,-0.2637,-0.2631,-0.2637,-0.2622,-0.262,-0.2602,-0.2562,-0.2537,-0.2457,-0.2457,-0.2438,-0.2478,-0.2379,-0.2458,-0.2553,-0.2508,-0.2516,-0.2522,-0.2416,-0.2412,-0.247,-0.247,-0.247,0,-0.259,-0.2645,-0.2622,-0.2666,-0.2681,-0.2647,-0.2693,-0.2688,-0.2659,-0.2651,-0.2623,-0.2547,-0.2506,-0.2517,-0.2558,-0.2508,-0.2437,-0.2505,-0.2524,-0.2529,-0.2534,-0.2423,-0.2418,-0.2477,-0.2476,-0.2476,-0.2475,0,-0.2645,-0.2691,-0.2704,-0.2759,-0.2764,-0.2792,-0.28,-0.2796,-0.2771,-0.2759,-0.2741,-0.2687,-0.2637,-0.2644,-0.2617,-0.2643,-0.2563,-0.2538,-0.2491,-0.2552,-0.2431,-0.2423,-0.2487,-0.2484,-0.2482,-0.2481,0,0,-0.2598,-0.2725,-0.2732,-0.2757,-0.2823,-0.2805,-0.2871,-0.2893,-0.2865,-0.2873,-0.2838,-0.2864,-0.2802,-0.2782,-0.274,-0.2743,-0.2715,-0.2673,-0.2667,-0.2572,-0.2559,-0.2519,-0.2503,-0.2686,-0.2687,-0.2687,-0.2447,0,-0.2649,-0.2757,-0.2819,-0.2877,-0.2913,-0.2927,-0.2951,-0.2953,-0.2932,-0.2877,-0.2878,-0.2816,-0.2863,-0.2799,-0.2829,-0.271,-0.2705,-0.2779,-0.2511,-0.2502,-0.2464,-0.2499,-0.2412,-0.2194,-0.2438,-0.2436,-0.2435,0,-0.2705,-0.2751,-0.2864,-0.2897,-0.2906,-0.2933,-0.2907,-0.2928,-0.2901,-0.2865,-0.2865,-0.2812,-0.2818,-0.2819,-0.2744,-0.2777,-0.2704,-0.2644,-0.2631,-0.2551,-0.2449,-0.218,-0.2168,-0.2153,-0.2421,-0.2422,-0.2423,0,-0.2667,-0.2773,-0.2855,-0.288,-0.2924,-0.2935,-0.2931,-0.2917,-0.2874,-0.2839,-0.2764,-0.2776,-0.2698,-0.2678,-0.262,-0.2644,-0.2498,-0.2482,-0.2387,-0.2378,-0.2235,-0.2215,-0.2189,-0.2452,-0.2453,-0.2454,-0.2454,0,-0.2724,-0.2753,-0.2822,-0.2849,-0.2795,-0.2863,-0.2795,-0.279,-0.2755,-0.2684,-0.2731,-0.2662,-0.2665,-0.2596,-0.2569,-0.245,-0.2449,-0.241,-0.2336,-0.2273,-0.2261,-0.2185,-0.2204,-0.2445,-0.2447,-0.2448,-0.245,0,-0.269,-0.2793,-0.2795,-0.2817,-0.2794,-0.2731,-0.2669,-0.2608,-0.2618,-0.2524,-0.2507,-0.2515,-0.2445,-0.2438,-0.234,-0.2331,-0.2193,-0.2211,-0.2122,-0.2047,-0.1955,-0.1984,-0.1855,-0.1805,-0.2023,-0.2021,-0.2019,0,-0.2702,-0.2728,-0.2693,-0.2626,-0.2634,-0.2552,-0.2485,-0.2504,-0.2464,-0.244,-0.2387,-0.2334,-0.2294,-0.2149,-0.2115,-0.2018,-0.2068,-0.1893,-0.1975,-0.1956,-0.1931,-0.1956,-0.1926,-0.1788,-0.1784,-0.1781,-0.1779,0,-0.2627,-0.2623,-0.2583,-0.2453,-0.2377,-0.2288,-0.2236,-0.2193,-0.2238,-0.2204,-0.2186,-0.2169,-0.2073,-0.1969,-0.1885,-0.1837,-0.1848,-0.1831,-0.183,-0.1787,-0.1787,-0.1699,-0.1904,-0.1753,-0.1756,-0.1758,-0.1759,-0.176,-0.2474,-0.2396,-0.2342,-0.2187,-0.2111,-0.2048,-0.1966,-0.1984,-0.1939,-0.1926,-0.1982,-0.1932,-0.1871,-0.1746,-0.1701,-0.1584,-0.1643,-0.1544,-0.1577,-0.1601,-0.1601,-0.1754,-0.1535,-0.1537,-0.1538,-0.1539,-0.1539,0,-0.225,-0.2197,-0.2065,-0.1912,-0.1798,-0.1836,-0.179,-0.1749,-0.172,-0.1744,-0.1733,-0.1668,-0.1566,-0.1532,-0.1425,-0.1358,-0.1341,-0.133,-0.1347,-0.1327,-0.1445,-0.1489,-0.1229,-0.1229,-0.1229,-0.1229,-0.1229,-0.1229,-0.2107,-0.196,-0.1898,-0.1635,-0.1557,-0.1425,-0.1402,-0.1419,-0.1427,-0.1385,-0.1369,-0.1369,-0.1365,-0.1415,-0.1319,-0.1254,-0.1236,-0.118,-0.1219,-0.1324,-0.1348,-0.1371,-0.1419,-0.1149,-0.1149,-0.1047,-0.1047,-0.1046]},{"header":{"parameterUnit":"m.s-1","parameterCategory":2,"la1":30.2991,"la2":30.254,"lo1":-89.0895,"lo2":-89.0444,"dy":0.0017,"dx":0.0017,"nx":28,"ny":28,"refTime":"2024-03-15T09:00:00:Z","depth":"0","parameterNumber":3,"parameterNumberName":"V-component_of_CURRENTS"},"data":[0,0,0,0,0,0,0,0,0,0,0,0,0,0,0,0,0,0,0,0,0,0,0,0,0,0,0,0,0,0,0,0,0,0,0,0,0,0,0,0,0,0,0,0,0,0,0,0,0,0,0,0,0,0,0,0,0,0,0.0197,0.0198,0,0.0277,0.0278,0.0278,0.0288,0.0288,0.0287,0.0286,0.0357,0.0359,0.0362,0,0,0,0,0,0,0,0,0,0,0,0,0,0.0025,0.0028,0.0197,0.0198,0.02,0.0277,0.0278,0.0279,0.0288,0.0288,0.0287,0.0286,0.0356,0.0359,0.0362,0,0,0,0,0,0,0,0,0,0,0,0,0,0.01,0.0029,0.0197,0.0215,0.0217,0.0277,0.0278,0.0279,0.0289,0.0288,0.0287,0.0286,0.0355,0.0359,0.0363,0.0405,0,0,0.0374,0.0376,0,0,0,0,0,0,0,0,0.0096,0.0106,0.0211,0.0214,0.0216,0.0273,0.0243,0.0321,0.0289,0.026,0.0286,0.0285,0.033,0.0335,0.0351,0.0408,0.0412,0.0374,0.0377,0.0378,0.0379,0,0,0,0,0,0,0,0.0091,0.0103,0.0227,0.0212,0.0216,0.0209,0.0218,0.0257,0.0298,0.0263,0.0264,0.0275,0.0331,0.0347,0.0353,0.0413,0.0374,0.0377,0.038,0.0381,0.0448,0.0448,0,0,0,0,0,0,0.0087,0.0099,0.0225,0.023,0.0154,0.0213,0.0224,0.0255,0.0298,0.0304,0.0276,0.0275,0.0341,0.0348,0.0355,0.0348,0.0378,0.0382,0.0384,0.0449,0.0448,0.0448,0,0,0,0,0,0,0.0083,0.0098,0.0222,0.0165,0.0181,0.0217,0.0252,0.0257,0.0268,0.0308,0.0314,0.0281,0.0341,0.035,0.0373,0.0353,0.0383,0.0387,0.0449,0.0449,0.0448,0.0373,0,0,0,0,0,0,0.0078,0.0097,0.0115,0.0166,0.0184,0.0238,0.0253,0.0259,0.0278,0.0277,0.0315,0.0321,0.0341,0.0367,0.0377,0.0359,0.039,0.045,0.0449,0.0448,0.0376,0.0369,0.0364,0,0,0,0,0,0.0072,0.0097,0.0116,0.013,0.0209,0.0237,0.0245,0.0266,0.0279,0.0275,0.0301,0.032,0.0368,0.037,0.0381,0.0364,0.045,0.0449,0.0448,0.0378,0.0371,0.0364,0,0,0,0,0,0,0.0038,0.0102,0.0123,0.0169,0.0193,0.0239,0.0244,0.0266,0.0288,0.0287,0.0324,0.0332,0.034,0.037,0.0372,0.0381,0.0409,0.041,0.0352,0.0345,0.0339,0.032,0.0393,0,0,0,0,0,0.004,0.007,0.0123,0.0156,0.0167,0.0207,0.0223,0.0238,0.0267,0.0276,0.0302,0.0329,0.0348,0.036,0.0382,0.04,0.0432,0.0394,0.0388,0.0382,0.0374,0.0426,0.0424,0.0444,0.0445,0.0445,0,0,0.0037,0.0076,0.0094,0.0149,0.0171,0.0166,0.0213,0.023,0.0225,0.0282,0.0281,0.0313,0.0349,0.0353,0.036,0.0374,0.0389,0.0381,0.0376,0.0371,0.0425,0.0423,0.0421,0.0444,0.0444,0.0444,0,0,0.0008,0.0077,0.0068,0.0085,0.0114,0.0143,0.0145,0.0185,0.0198,0.0213,0.0243,0.0266,0.0301,0.0316,0.0331,0.0314,0.0356,0.0319,0.0276,0.0326,0.0325,0.0324,0.034,0.0341,0.0317,0.0317,0.0316,0,-0.0006,0.0002,0.0067,0.0049,0.0058,0.0124,0.01,0.0128,0.0167,0.0184,0.0195,0.0252,0.0279,0.0292,0.0273,0.0299,0.0327,0.0297,0.0318,0.0318,0.0319,0.0336,0.0338,0.0313,0.0313,0.0314,0.0314,0,-0.0063,-0.0056,-0.006,-0.0057,-0.0035,-0.0038,0.0008,0.0029,0.0064,0.0096,0.0125,0.0171,0.0206,0.0213,0.0233,0.0247,0.0264,0.0304,0.0333,0.0312,0.0331,0.0335,0.0307,0.0309,0.031,0.0311,0,0,-0.011,-0.0104,-0.0112,-0.0126,-0.0089,-0.0078,-0.007,-0.004,-0.0028,0.0016,0.0031,0.0064,0.0112,0.0131,0.0173,0.0207,0.0222,0.0246,0.0251,0.0256,0.031,0.0356,0.0365,0.0273,0.0273,0.0274,0.0313,0,-0.0188,-0.025,-0.0212,-0.0255,-0.0278,-0.0201,-0.0195,-0.0149,-0.0097,-0.0063,0.0007,0.0033,0.0076,0.0093,0.0135,0.0201,0.0233,0.0206,0.0335,0.0338,0.0378,0.0372,0.0405,0.0447,0.0318,0.0318,0.0319,0,-0.0284,-0.0301,-0.0367,-0.0349,-0.0348,-0.0352,-0.0302,-0.0288,-0.0208,-0.0166,-0.0105,-0.0039,0.0007,0.0057,0.016,0.0143,0.0214,0.027,0.0274,0.0348,0.0393,0.0453,0.046,0.0565,0.0326,0.0325,0.0325,0,-0.0384,-0.0411,-0.0462,-0.0462,-0.043,-0.0425,-0.0398,-0.0326,-0.0303,-0.0228,-0.02,-0.0111,-0.0071,0.0032,0.0156,0.0157,0.028,0.0303,0.0411,0.0414,0.0482,0.0491,0.0604,0.0387,0.0387,0.0386,0.0386,0,-0.0494,-0.0531,-0.0512,-0.0538,-0.0562,-0.0509,-0.0511,-0.0461,-0.0397,-0.0368,-0.0262,-0.0215,-0.007,0.0032,0.0138,0.0287,0.0276,0.0398,0.0435,0.0455,0.046,0.0588,0.0629,0.0388,0.0388,0.0387,0.0387,0,-0.0609,-0.0607,-0.0647,-0.0625,-0.0616,-0.0632,-0.0585,-0.0575,-0.0509,-0.0468,-0.0447,-0.0303,-0.0162,-0.0007,0.0162,0.0263,0.0474,0.0462,0.0459,0.0495,0.0679,0.0713,0.0851,0.092,0.0563,0.0565,0.0566,0,-0.068,-0.0719,-0.0714,-0.0723,-0.0715,-0.0719,-0.071,-0.0644,-0.0621,-0.051,-0.0491,-0.0344,-0.0201,0.0058,0.026,0.046,0.0551,0.0597,0.0612,0.0694,0.0759,0.0775,0.0824,0.0658,0.066,0.0661,0.0663,0,-0.0785,-0.0779,-0.0795,-0.0814,-0.0816,-0.082,-0.0801,-0.0799,-0.0707,-0.0642,-0.0514,-0.039,-0.0116,0.0155,0.0415,0.053,0.0678,0.0635,0.0738,0.0856,0.0864,0.0947,0.0599,0.0676,0.0675,0.0674,0.0673,0.0673,-0.0837,-0.0867,-0.0873,-0.0882,-0.0889,-0.0894,-0.089,-0.083,-0.0772,-0.0599,-0.0526,-0.0264,0.0077,0.0465,0.0592,0.0854,0.0814,0.0928,0.0961,0.0968,0.1048,0.0714,0.0831,0.083,0.083,0.0829,0.0829,0,-0.0889,-0.0908,-0.0931,-0.0935,-0.0945,-0.0934,-0.0916,-0.0855,-0.0749,-0.053,-0.0356,0.0062,0.04,0.0706,0.105,0.1179,0.12,0.1231,0.1263,0.1298,0.1024,0.1044,0.1192,0.1192,0.1192,0.1192,0.1192,0.1191,-0.0905,-0.0947,-0.0947,-0.0964,-0.0968,-0.0961,-0.0944,-0.08,-0.0625,-0.0218,0.0089,0.0309,0.0662,0.1154,0.1455,0.1469,0.1578,0.1556,0.1619,0.1429,0.1403,0.1378,0.1408,0.163,0.1631,0.1886,0.1889,0.189]}],[{"header":{"parameterUnit":"m.s-1","parameterCategory":2,"la1":30.2991,"la2":30.254,"lo1":-89.0895,"lo2":-89.0444,"dy":0.0017,"dx":0.0017,"nx":28,"ny":28,"refTime":"2024-03-15T09:00:00:Z","depth":"2","parameterNumber":2,"parameterNumberName":"U-component_of_CURRENTS"},"data":[0,0,0,0,0,0,0,0,0,0,0,0,0,0,0,0,0,0,0,0,0,0,0,0,0,0,0,0,0,0,0,0,0,0,0,0,0,0,0,0,0,0,0,0,0,0,0,0,0,0,0,0,0,0,0,0,0,0,-0.1847,-0.1848,0,-0.1993,-0.1995,-0.1997,-0.2158,-0.216,-0.2163,-0.2165,-0.2223,-0.2223,-0.2222,0,0,0,0,0,0,0,0,0,0,0,0,0,-0.185,-0.1848,-0.1847,-0.1848,-0.185,-0.1993,-0.1995,-0.1997,-0.2157,-0.216,-0.2163,-0.2166,-0.2224,-0.2223,-0.2222,0,0,0,0,0,0,0,0,0,0,0,0,0,-0.1907,-0.1848,-0.1846,-0.1948,-0.1958,-0.1993,-0.1995,-0.1998,-0.2157,-0.216,-0.2164,-0.2167,-0.2224,-0.2223,-0.2222,-0.2145,0,0,-0.2219,-0.2218,0,0,0,0,0,0,0,0,-0.1903,-0.1907,-0.1931,-0.1941,-0.1953,-0.2061,-0.2018,-0.2043,-0.2156,-0.2081,-0.2165,-0.2169,-0.2158,-0.2163,-0.2184,-0.2148,-0.215,-0.2219,-0.2218,-0.2218,-0.2218,0,0,0,0,0,0,0,-0.1899,-0.1902,-0.1904,-0.1933,-0.1946,-0.2036,-0.2047,-0.2025,-0.2096,-0.2088,-0.21,-0.2116,-0.2164,-0.2184,-0.2186,-0.2151,-0.2219,-0.2218,-0.2217,-0.2217,-0.2224,-0.2225,0,0,0,0,0,0,-0.187,-0.1897,-0.19,-0.1909,-0.1937,-0.2032,-0.2044,-0.2023,-0.2099,-0.2115,-0.2113,-0.2123,-0.2184,-0.2187,-0.2188,-0.2276,-0.2218,-0.2217,-0.2216,-0.2223,-0.2224,-0.2225,0,0,0,0,0,0,-0.1868,-0.1867,-0.1894,-0.191,-0.192,-0.2027,-0.2003,-0.2024,-0.2065,-0.2119,-0.2134,-0.2135,-0.2187,-0.219,-0.2245,-0.2273,-0.2216,-0.2216,-0.2222,-0.2224,-0.2225,-0.2339,0,0,0,0,0,0,-0.1867,-0.1864,-0.184,-0.1906,-0.1918,-0.1928,-0.2,-0.2024,-0.2068,-0.2083,-0.214,-0.215,-0.219,-0.2247,-0.2244,-0.2271,-0.2215,-0.2221,-0.2223,-0.2224,-0.2334,-0.2344,-0.2352,0,0,0,0,0,-0.1866,-0.1848,-0.1837,-0.1838,-0.1878,-0.1928,-0.1942,-0.2033,-0.2065,-0.2082,-0.2163,-0.2149,-0.2253,-0.2248,-0.2244,-0.2271,-0.2221,-0.2222,-0.2224,-0.233,-0.2342,-0.2352,0,0,0,0,0,0,-0.1846,-0.1864,-0.1854,-0.184,-0.1874,-0.1956,-0.1986,-0.202,-0.2092,-0.2117,-0.2165,-0.218,-0.2235,-0.222,-0.2213,-0.2273,-0.2228,-0.223,-0.231,-0.2321,-0.233,-0.2259,-0.2214,0,0,0,0,0,-0.1814,-0.1806,-0.1831,-0.1821,-0.1831,-0.189,-0.1921,-0.1974,-0.2044,-0.208,-0.2135,-0.2183,-0.2227,-0.2254,-0.2278,-0.23,-0.2234,-0.2309,-0.2318,-0.2326,-0.2264,-0.2241,-0.2242,-0.2231,-0.2231,-0.2231,0,0,-0.1798,-0.1814,-0.1803,-0.1816,-0.185,-0.1886,-0.192,-0.1969,-0.2022,-0.2065,-0.2163,-0.2204,-0.2237,-0.2306,-0.2323,-0.2308,-0.2298,-0.2328,-0.2336,-0.2267,-0.2243,-0.2244,-0.2245,-0.2232,-0.2232,-0.2232,0,0,-0.1804,-0.1772,-0.1778,-0.18,-0.1846,-0.1888,-0.1892,-0.1968,-0.2023,-0.2101,-0.2162,-0.2235,-0.2284,-0.235,-0.2378,-0.2426,-0.234,-0.2414,-0.2414,-0.2397,-0.2397,-0.2396,-0.2328,-0.232,-0.2428,-0.2428,-0.2429,0,-0.1786,-0.1786,-0.1792,-0.1819,-0.185,-0.1884,-0.1917,-0.1966,-0.2066,-0.2092,-0.2147,-0.225,-0.2314,-0.2376,-0.2429,-0.2449,-0.2381,-0.2388,-0.2408,-0.2406,-0.2403,-0.2333,-0.2323,-0.2434,-0.2433,-0.2433,-0.2432,0,-0.1797,-0.1806,-0.182,-0.1854,-0.1889,-0.192,-0.1978,-0.2029,-0.2096,-0.2135,-0.2206,-0.2308,-0.2365,-0.2412,-0.245,-0.2458,-0.2397,-0.2422,-0.2383,-0.2411,-0.2336,-0.2323,-0.2442,-0.244,-0.2439,-0.2437,0,0,-0.173,-0.1808,-0.1808,-0.1842,-0.1907,-0.1939,-0.2017,-0.2071,-0.2099,-0.2191,-0.2228,-0.2359,-0.2369,-0.2394,-0.2447,-0.2445,-0.2434,-0.2416,-0.2412,-0.2347,-0.2322,-0.2285,-0.2267,-0.245,-0.2448,-0.2446,-0.2283,0,-0.1735,-0.1795,-0.1835,-0.1902,-0.1941,-0.1995,-0.2055,-0.2109,-0.2165,-0.2207,-0.2269,-0.2319,-0.2372,-0.2413,-0.2423,-0.2423,-0.2398,-0.2469,-0.2298,-0.2291,-0.2258,-0.2252,-0.2117,-0.1958,-0.227,-0.2267,-0.2266,0,-0.1732,-0.1778,-0.1838,-0.1934,-0.1948,-0.1994,-0.2071,-0.2123,-0.2165,-0.2202,-0.2235,-0.2258,-0.2294,-0.2339,-0.2303,-0.233,-0.2308,-0.2297,-0.2292,-0.2188,-0.223,-0.1976,-0.1922,-0.2243,-0.2245,-0.2247,-0.2248,0,-0.1693,-0.1787,-0.1839,-0.1864,-0.1962,-0.2006,-0.2058,-0.2114,-0.2137,-0.2172,-0.2181,-0.2199,-0.2229,-0.2194,-0.2218,-0.2237,-0.2133,-0.2183,-0.2105,-0.21,-0.191,-0.1893,-0.2107,-0.2107,-0.2107,-0.2108,-0.2108,0,-0.168,-0.1715,-0.1827,-0.1837,-0.1895,-0.1979,-0.2012,-0.2066,-0.2104,-0.2099,-0.2154,-0.2156,-0.2187,-0.216,-0.2152,-0.2078,-0.2092,-0.205,-0.205,-0.1949,-0.1938,-0.2124,-0.2128,-0.2101,-0.2103,-0.2104,-0.2105,0,-0.1615,-0.1683,-0.1748,-0.1849,-0.1878,-0.1915,-0.198,-0.1992,-0.2041,-0.2042,-0.205,-0.2094,-0.206,-0.2063,-0.2018,-0.2004,-0.1946,-0.1917,-0.1774,-0.1761,-0.1923,-0.1935,-0.177,-0.1767,-0.1765,-0.1763,-0.1761,0,-0.159,-0.1624,-0.1723,-0.175,-0.179,-0.1848,-0.1872,-0.1948,-0.1959,-0.2001,-0.1992,-0.1981,-0.1962,-0.1873,-0.1834,-0.1753,-0.1851,-0.1591,-0.1632,-0.1868,-0.1885,-0.1901,-0.1916,-0.1418,-0.1413,-0.141,-0.1407,0,-0.1519,-0.1556,-0.1586,-0.1656,-0.1701,-0.1733,-0.1783,-0.1788,-0.1862,-0.1867,-0.1867,-0.1852,-0.1792,-0.1662,-0.1587,-0.1541,-0.1598,-0.1516,-0.1773,-0.1556,-0.1532,-0.1552,-0.1578,-0.1375,-0.1379,-0.1381,-0.1383,-0.1384,-0.1444,-0.1465,-0.1503,-0.156,-0.1601,-0.1609,-0.1591,-0.1642,-0.164,-0.1622,-0.1691,-0.1607,-0.1597,-0.14,-0.133,-0.1273,-0.1387,-0.133,-0.1341,-0.1357,-0.1377,-0.1354,-0.1163,-0.1165,-0.1167,-0.1168,-0.117,0,-0.1351,-0.137,-0.1406,-0.1452,-0.1438,-0.1493,-0.151,-0.1462,-0.1426,-0.1429,-0.1399,-0.1243,-0.1151,-0.1142,-0.1002,-0.0987,-0.0992,-0.0951,-0.0955,-0.0986,-0.1014,-0.1019,-0.0708,-0.0707,-0.0706,-0.0704,0,0,-0.1308,-0.1269,-0.1298,-0.1255,-0.1286,-0.122,-0.1202,-0.1158,-0.1129,-0.1044,-0.099,-0.1046,-0.1084,-0.0882,-0.085,-0.0749,-0.0858,-0.0713,-0.108,-0.1113,-0.114,-0.1227,-0.1269,0,0,0,0,0]},{"header":{"parameterUnit":"m.s-1","parameterCategory":2,"la1":30.2991,"la2":30.254,"lo1":-89.0895,"lo2":-89.0444,"dy":0.0017,"dx":0.0017,"nx":28,"ny":28,"refTime":"2024-03-15T09:00:00:Z","depth":"2","parameterNumber":3,"parameterNumberName":"V-component_of_CURRENTS"},"data":[0,0,0,0,0,0,0,0,0,0,0,0,0,0,0,0,0,0,0,0,0,0,0,0,0,0,0,0,0,0,0,0,0,0,0,0,0,0,0,0,0,0,0,0,0,0,0,0,0,0,0,0,0,0,0,0,0,0,-0.0326,-0.0326,0,-0.0261,-0.026,-0.0259,-0.021,-0.021,-0.0209,-0.0209,-0.0118,-0.0116,-0.0114,0,0,0,0,0,0,0,0,0,0,0,0,0,-0.0323,-0.0324,-0.0327,-0.0326,-0.0325,-0.0261,-0.026,-0.0259,-0.021,-0.021,-0.0209,-0.0209,-0.0119,-0.0116,-0.0114,0,0,0,0,0,0,0,0,0,0,0,0,0,-0.0297,-0.0324,-0.0327,-0.0294,-0.0291,-0.0261,-0.026,-0.0259,-0.021,-0.021,-0.0209,-0.0209,-0.012,-0.0116,-0.0113,-0.0103,0,0,-0.0104,-0.0102,0,0,0,0,0,0,0,0,-0.0298,-0.0297,-0.03,-0.0296,-0.0292,-0.0244,-0.0225,-0.0206,-0.021,-0.0239,-0.0209,-0.0209,-0.0159,-0.0153,-0.014,-0.0098,-0.0095,-0.0103,-0.0101,-0.01,-0.0099,0,0,0,0,0,0,0,-0.03,-0.0299,-0.0299,-0.0299,-0.0295,-0.0253,-0.025,-0.0221,-0.0201,-0.0237,-0.0233,-0.0228,-0.0157,-0.0143,-0.0137,-0.0093,-0.0103,-0.01,-0.0098,-0.0097,0.0013,0.0014,0,0,0,0,0,0,-0.0317,-0.0301,-0.0301,-0.0297,-0.0296,-0.0254,-0.025,-0.0259,-0.0202,-0.0193,-0.0229,-0.0226,-0.0149,-0.0141,-0.0134,-0.0071,-0.01,-0.0097,-0.0095,0.0012,0.0013,0.0014,0,0,0,0,0,0,-0.0317,-0.0318,-0.0304,-0.0298,-0.0293,-0.0256,-0.0266,-0.0258,-0.0243,-0.0196,-0.0187,-0.0222,-0.0148,-0.0138,-0.0093,-0.0069,-0.0095,-0.0093,0.001,0.0012,0.0013,0.0024,0,0,0,0,0,0,-0.0318,-0.0319,-0.0333,-0.03,-0.0294,-0.0287,-0.0266,-0.0257,-0.0242,-0.0238,-0.0188,-0.0179,-0.0147,-0.0098,-0.009,-0.0065,-0.009,0.0009,0.0011,0.0013,0.0022,0.0026,0.0028,0,0,0,0,0,-0.0318,-0.0333,-0.0334,-0.0334,-0.0315,-0.0287,-0.028,-0.025,-0.0242,-0.0235,-0.0192,-0.018,-0.008,-0.0094,-0.0085,-0.0059,0.0008,0.0011,0.0013,0.0021,0.0025,0.0028,0,0,0,0,0,0,-0.0339,-0.0329,-0.0329,-0.0343,-0.032,-0.0279,-0.0271,-0.0255,-0.0217,-0.0212,-0.0168,-0.0156,-0.0107,-0.0088,-0.0105,-0.0022,-0.0034,-0.003,-0.0031,-0.0027,-0.0024,-0.0068,-0.0087,0,0,0,0,0,-0.0354,-0.0366,-0.0342,-0.0355,-0.0343,-0.0311,-0.0298,-0.0279,-0.0241,-0.0224,-0.0186,-0.0141,-0.0091,-0.0065,-0.0027,0.0016,0.0018,0.0039,0.0042,0.0044,0.0015,0.0052,0.0055,0.0021,0.0021,0.0021,0,0,-0.037,-0.0363,-0.0373,-0.036,-0.0339,-0.0327,-0.0301,-0.0282,-0.0267,-0.022,-0.0183,-0.0134,-0.0079,-0.0024,-0.0001,-0.0004,0.0059,0.0047,0.0049,0.0017,0.0054,0.0058,0.006,0.0023,0.0022,0.0022,0,0,-0.0394,-0.0396,-0.0409,-0.039,-0.0365,-0.0341,-0.0339,-0.0298,-0.0273,-0.0231,-0.0186,-0.0121,-0.0063,-0.0004,0.003,0.0069,0.007,0.008,0.0066,0.0104,0.0106,0.0108,0.0129,0.0133,0.0086,0.0086,0.0086,0,-0.0414,-0.0427,-0.0405,-0.0401,-0.0392,-0.0352,-0.0352,-0.0317,-0.0266,-0.0246,-0.0221,-0.0111,-0.0049,0.0022,0.0047,0.0077,0.0078,0.0051,0.0106,0.0108,0.011,0.0131,0.0135,0.0087,0.0087,0.0087,0.0087,0,-0.0437,-0.0447,-0.0446,-0.0436,-0.0421,-0.0412,-0.0367,-0.0338,-0.0302,-0.0269,-0.0198,-0.0106,-0.0045,0.0004,0.0042,0.0094,0.0084,0.0102,0.0092,0.0114,0.0135,0.0139,0.0088,0.0088,0.0088,0.0087,0,0,-0.048,-0.047,-0.0467,-0.0472,-0.044,-0.0427,-0.0397,-0.036,-0.0338,-0.027,-0.0237,-0.0117,-0.008,-0.004,0.0029,0.0076,0.0127,0.0087,0.0089,0.0097,0.0183,0.0211,0.0218,0.0145,0.0145,0.0146,0.0197,0,-0.0505,-0.0519,-0.0501,-0.0507,-0.051,-0.0465,-0.0441,-0.04,-0.0348,-0.0301,-0.0206,-0.0145,-0.0093,-0.0047,0.0006,0.0095,0.0133,0.0109,0.0167,0.0168,0.0183,0.0223,0.02,0.0246,0.0201,0.0201,0.0202,0,-0.0535,-0.0536,-0.0558,-0.0548,-0.0543,-0.0537,-0.0494,-0.0468,-0.0393,-0.0349,-0.0285,-0.0221,-0.0127,-0.0084,0.004,0.0013,0.0082,0.0148,0.0152,0.0167,0.0204,0.0216,0.0255,0.0209,0.0208,0.0207,0.0207,0,-0.0582,-0.0577,-0.0601,-0.0597,-0.0573,-0.0568,-0.0549,-0.0489,-0.0461,-0.0387,-0.0354,-0.026,-0.0189,-0.0107,0.0036,0.0029,0.0161,0.0179,0.0263,0.0265,0.0249,0.025,0.0245,0.0245,0.0245,0.0245,0.0245,0,-0.0627,-0.0641,-0.0625,-0.0635,-0.0643,-0.0614,-0.0607,-0.0566,-0.0508,-0.0478,-0.0392,-0.0334,-0.0195,-0.0094,0.0008,0.0149,0.0142,0.0251,0.0282,0.0256,0.0256,0.0219,0.0216,0.0247,0.0246,0.0246,0.0246,0,-0.0689,-0.0682,-0.0699,-0.0678,-0.0674,-0.0681,-0.0653,-0.0637,-0.058,-0.0535,-0.0514,-0.0386,-0.0254,-0.0115,0.0049,0.0132,0.0259,0.0309,0.0262,0.0287,0.0336,0.0332,0.0389,0.0391,0.0392,0.0393,0.0394,0,-0.0728,-0.0746,-0.0736,-0.0743,-0.0738,-0.0738,-0.0734,-0.0682,-0.0658,-0.0558,-0.0535,-0.04,-0.0284,-0.0044,0.0123,0.0293,0.0301,0.0366,0.0363,0.0327,0.0352,0.0346,0.0341,0.0351,0.0351,0.0352,0.0352,0,-0.078,-0.0776,-0.078,-0.0799,-0.0804,-0.0805,-0.0792,-0.0782,-0.0712,-0.065,-0.0543,-0.0445,-0.0213,-0.0012,0.0207,0.0299,0.0335,0.0379,0.0365,0.0321,0.0296,0.0318,0.0314,0.0355,0.0355,0.0355,0.0355,0.0354,-0.0803,-0.0823,-0.0826,-0.0844,-0.0852,-0.0859,-0.0856,-0.0816,-0.0767,-0.0651,-0.0561,-0.038,-0.0202,0.0126,0.027,0.0397,0.0392,0.0424,0.042,0.0417,0.0406,0.0386,0.0458,0.0458,0.0459,0.0459,0.0459,0,-0.0828,-0.0848,-0.0868,-0.0883,-0.09,-0.0893,-0.0878,-0.0847,-0.0777,-0.0648,-0.0516,-0.0288,-0.0058,0.0127,0.0339,0.0459,0.0436,0.0468,0.0419,0.0415,0.0412,0.0399,0.0451,0.0451,0.0451,0.0452,0,0,-0.0842,-0.0866,-0.0879,-0.0909,-0.0926,-0.0931,-0.0918,-0.0846,-0.075,-0.06,-0.0447,-0.0266,-0.0043,0.011,0.0252,0.0361,0.0349,0.0361,0.0353,0.0271,0.0266,0.0371,0.0345,0,0,0,0,0]}],[{"header":{"parameterUnit":"m.s-1","parameterCategory":2,"la1":30.2991,"la2":30.254,"lo1":-89.0895,"lo2":-89.0444,"dy":0.0017,"dx":0.0017,"nx":28,"ny":28,"refTime":"2024-03-15T09:00:00:Z","depth":"4","parameterNumber":2,"parameterNumberName":"U-component_of_CURRENTS"},"data":[0,0,0,0,0,0,0,0,0,0,0,0,0,0,0,0,0,0,0,0,0,0,0,0,0,0,0,0,0,0,0,0,0,0,0,0,0,0,0,0,0,0,0,0,0,0,0,0,0,0,0,0,0,0,0,0,0,0,-0.1046,-0.1047,0,-0.107,-0.1069,-0.1069,-0.107,-0.107,-0.1071,-0.1071,-0.1084,-0.1084,-0.1084,0,0,0,0,0,0,0,0,0,0,0,0,0,-0.1028,-0.1028,-0.1046,-0.1047,-0.1048,-0.107,-0.1069,-0.1069,-0.107,-0.107,-0.1071,-0.1071,-0.1084,-0.1084,-0.1084,0,0,0,0,0,0,0,0,0,0,0,0,0,-0.1037,-0.1027,-0.1046,-0.1054,-0.1056,-0.107,-0.1069,-0.1069,-0.107,-0.107,-0.1071,-0.1071,-0.1084,-0.1084,-0.1084,-0.1081,0,0,-0.1085,-0.1085,0,0,0,0,0,0,0,0,-0.1037,-0.1037,-0.1052,-0.1054,-0.1055,-0.1072,-0.1068,-0.1074,-0.107,-0.1059,-0.1071,-0.1071,-0.1082,-0.1082,-0.1079,-0.1081,-0.1082,-0.1085,-0.1085,-0.1085,-0.1085,0,0,0,0,0,0,0,-0.1036,-0.1036,-0.105,-0.1053,-0.1055,-0.1066,-0.1067,-0.1069,-0.1065,-0.106,-0.1062,-0.1072,-0.1082,-0.1079,-0.108,-0.1082,-0.1085,-0.1085,-0.1086,-0.1086,-0.1131,-0.1132,0,0,0,0,0,0,-0.1041,-0.1035,-0.105,-0.1052,-0.1052,-0.1067,-0.1067,-0.1062,-0.1065,-0.1067,-0.1072,-0.1072,-0.1078,-0.1079,-0.108,-0.1131,-0.1085,-0.1086,-0.1086,-0.113,-0.1132,-0.1133,0,0,0,0,0,0,-0.104,-0.1042,-0.1049,-0.1049,-0.1051,-0.1067,-0.1061,-0.1063,-0.1082,-0.1075,-0.1076,-0.1094,-0.1079,-0.108,-0.1107,-0.1129,-0.1086,-0.1086,-0.1129,-0.1131,-0.1132,-0.1197,0,0,0,0,0,0,-0.1039,-0.1041,-0.1047,-0.1049,-0.1052,-0.1072,-0.1061,-0.1063,-0.1089,-0.109,-0.1093,-0.1093,-0.1079,-0.1107,-0.1107,-0.1129,-0.1086,-0.1128,-0.113,-0.1132,-0.1194,-0.1201,-0.1207,0,0,0,0,0,-0.1038,-0.1046,-0.1047,-0.105,-0.1057,-0.1073,-0.1075,-0.1084,-0.1091,-0.1102,-0.1111,-0.1095,-0.1119,-0.1108,-0.1108,-0.1131,-0.1127,-0.1129,-0.1132,-0.1191,-0.1199,-0.1207,0,0,0,0,0,0,-0.1036,-0.1047,-0.1048,-0.1057,-0.1072,-0.1075,-0.1092,-0.11,-0.1115,-0.1121,-0.1112,-0.1113,-0.1146,-0.113,-0.1118,-0.1149,-0.1119,-0.1121,-0.1163,-0.1171,-0.1178,-0.1187,-0.1086,0,0,0,0,0,-0.104,-0.1048,-0.1061,-0.1068,-0.108,-0.1091,-0.1103,-0.111,-0.1122,-0.1129,-0.1137,-0.1142,-0.1151,-0.1157,-0.1161,-0.1179,-0.1173,-0.1191,-0.1198,-0.1204,-0.1211,-0.122,-0.1228,-0.114,-0.114,-0.114,0,0,-0.1038,-0.1049,-0.1052,-0.107,-0.108,-0.1103,-0.1098,-0.1122,-0.1144,-0.1128,-0.1166,-0.1172,-0.1164,-0.1187,-0.1198,-0.1178,-0.1228,-0.1207,-0.1212,-0.1216,-0.1223,-0.1231,-0.1239,-0.1142,-0.1142,-0.1142,0,0,-0.1043,-0.1052,-0.1065,-0.1084,-0.1114,-0.1123,-0.1139,-0.116,-0.1175,-0.1206,-0.1206,-0.1233,-0.1239,-0.1246,-0.1245,-0.1292,-0.1268,-0.1287,-0.1323,-0.1331,-0.1338,-0.1345,-0.1361,-0.1368,-0.1284,-0.1284,-0.1284,0,-0.1043,-0.1059,-0.1072,-0.1096,-0.1121,-0.1139,-0.1165,-0.1181,-0.1212,-0.1229,-0.1227,-0.1265,-0.1268,-0.1297,-0.1315,-0.1309,-0.1307,-0.1294,-0.134,-0.1346,-0.1351,-0.1366,-0.1373,-0.1287,-0.1287,-0.1286,-0.1286,0,-0.1055,-0.1081,-0.1095,-0.1129,-0.1155,-0.1182,-0.1212,-0.1242,-0.1265,-0.1279,-0.1324,-0.1333,-0.1356,-0.136,-0.1353,-0.1394,-0.138,-0.1354,-0.1321,-0.1364,-0.1377,-0.1384,-0.1292,-0.1291,-0.129,-0.1289,0,0,-0.1018,-0.1089,-0.1095,-0.1129,-0.1179,-0.1202,-0.1246,-0.1287,-0.1323,-0.1348,-0.1395,-0.1418,-0.1431,-0.1433,-0.1434,-0.1441,-0.149,-0.1417,-0.1416,-0.1435,-0.1514,-0.1385,-0.1379,-0.1466,-0.1467,-0.1468,-0.1513,0,-0.1025,-0.1081,-0.1115,-0.1175,-0.1209,-0.125,-0.1293,-0.1333,-0.1365,-0.1415,-0.1431,-0.1474,-0.1455,-0.148,-0.1488,-0.1493,-0.1507,-0.1481,-0.1467,-0.1468,-0.1348,-0.1382,-0.1472,-0.1517,-0.1519,-0.152,-0.152,0,-0.1017,-0.1067,-0.1126,-0.1214,-0.1233,-0.1276,-0.1352,-0.1391,-0.1453,-0.1479,-0.1516,-0.1533,-0.1576,-0.1549,-0.1572,-0.1553,-0.1547,-0.1538,-0.1539,-0.1398,-0.1348,-0.1461,-0.1531,-0.153,-0.153,-0.1529,-0.1528,0,-0.0981,-0.1069,-0.1124,-0.1152,-0.1251,-0.1294,-0.1347,-0.1412,-0.1454,-0.1528,-0.1561,-0.1602,-0.1632,-0.163,-0.1611,-0.1603,-0.1617,-0.1602,-0.1481,-0.1473,-0.1549,-0.1541,-0.1619,-0.1619,-0.1619,-0.1619,-0.1619,0,-0.0961,-0.1005,-0.1121,-0.1153,-0.1234,-0.1298,-0.1377,-0.1429,-0.1508,-0.1547,-0.1599,-0.1621,-0.1651,-0.1654,-0.1637,-0.1566,-0.1638,-0.1495,-0.1472,-0.1577,-0.1572,-0.1554,-0.1546,-0.1621,-0.162,-0.162,-0.162,0,-0.0893,-0.0968,-0.1046,-0.1173,-0.1219,-0.1275,-0.14,-0.1446,-0.1521,-0.1576,-0.1603,-0.1656,-0.1643,-0.1646,-0.1643,-0.1582,-0.1542,-0.1499,-0.1622,-0.1604,-0.1397,-0.1392,-0.139,-0.1386,-0.1383,-0.1379,-0.1377,0,-0.0855,-0.0888,-0.1048,-0.1113,-0.1177,-0.1277,-0.1341,-0.1443,-0.1479,-0.1565,-0.1575,-0.1606,-0.1615,-0.1512,-0.1527,-0.1484,-0.1452,-0.1443,-0.1414,-0.1394,-0.1373,-0.1373,-0.1373,-0.1371,-0.137,-0.1369,-0.1368,0,-0.0789,-0.0857,-0.0938,-0.1069,-0.1163,-0.124,-0.1332,-0.1354,-0.1441,-0.1529,-0.1497,-0.1477,-0.1456,-0.1427,-0.1391,-0.136,-0.1457,-0.1405,-0.1413,-0.1385,-0.1371,-0.1353,-0.1357,-0.1356,-0.1358,-0.1359,-0.1359,0,-0.0746,-0.0791,-0.091,-0.1019,-0.1126,-0.1165,-0.1228,-0.1263,-0.1307,-0.1393,-0.1375,-0.1391,-0.1437,-0.1361,-0.1331,-0.1282,-0.1265,-0.1229,-0.1245,-0.126,-0.1188,-0.1149,-0.1049,0,0,0,0,0,-0.0695,-0.0746,-0.0848,-0.0962,-0.1056,-0.1101,-0.1202,-0.1254,-0.134,-0.1281,-0.1321,-0.1285,-0.1229,-0.1244,-0.1163,-0.1274,-0.1275,-0.1176,-0.1245,-0.1286,-0.13,-0.1224,0,0,0,0,0,0,-0.0671,-0.0754,-0.082,-0.088,-0.0927,-0.0999,-0.1048,-0.1108,-0.1079,-0.1167,-0.1139,-0.1201,-0.1163,-0.124,-0.113,-0.1134,-0.115,-0.1195,-0.1192,-0.1278,-0.1291,-0.1303,-0.1229,0,0,0,0,0]},{"header":{"parameterUnit":"m.s-1","parameterCategory":2,"la1":30.2991,"la2":30.254,"lo1":-89.0895,"lo2":-89.0444,"dy":0.0017,"dx":0.0017,"nx":28,"ny":28,"refTime":"2024-03-15T09:00:00:Z","depth":"4","parameterNumber":3,"parameterNumberName":"V-component_of_CURRENTS"},"data":[0,0,0,0,0,0,0,0,0,0,0,0,0,0,0,0,0,0,0,0,0,0,0,0,0,0,0,0,0,0,0,0,0,0,0,0,0,0,0,0,0,0,0,0,0,0,0,0,0,0,0,0,0,0,0,0,0,0,-0.0238,-0.0238,0,-0.0219,-0.0219,-0.0218,-0.0221,-0.0221,-0.0221,-0.0221,-0.0183,-0.0182,-0.018,0,0,0,0,0,0,0,0,0,0,0,0,0,-0.0237,-0.0237,-0.0238,-0.0238,-0.0238,-0.0219,-0.0218,-0.0218,-0.0221,-0.0221,-0.0221,-0.0222,-0.0183,-0.0182,-0.018,0,0,0,0,0,0,0,0,0,0,0,0,0,-0.023,-0.0237,-0.0238,-0.0236,-0.0236,-0.0219,-0.0218,-0.0218,-0.0221,-0.0221,-0.0221,-0.0222,-0.0184,-0.0182,-0.018,-0.016,0,0,-0.0174,-0.0173,0,0,0,0,0,0,0,0,-0.023,-0.023,-0.0237,-0.0236,-0.0236,-0.0222,-0.0204,-0.0198,-0.022,-0.0227,-0.0221,-0.0222,-0.0194,-0.0191,-0.0187,-0.0158,-0.0156,-0.0174,-0.0173,-0.0172,-0.0171,0,0,0,0,0,0,0,-0.0231,-0.023,-0.0231,-0.0236,-0.0236,-0.0222,-0.0222,-0.0203,-0.0208,-0.0226,-0.0226,-0.0223,-0.0193,-0.0189,-0.0186,-0.0156,-0.0174,-0.0172,-0.0171,-0.017,-0.012,-0.012,0,0,0,0,0,0,-0.0234,-0.0231,-0.0231,-0.023,-0.0234,-0.0222,-0.0222,-0.0226,-0.0209,-0.0206,-0.0223,-0.0224,-0.0192,-0.0189,-0.0185,-0.018,-0.0172,-0.017,-0.0169,-0.012,-0.012,-0.012,0,0,0,0,0,0,-0.0234,-0.0235,-0.0232,-0.0229,-0.0228,-0.0222,-0.0227,-0.0226,-0.0227,-0.0206,-0.0204,-0.0226,-0.0192,-0.0188,-0.017,-0.0178,-0.0169,-0.0168,-0.012,-0.012,-0.012,-0.0158,0,0,0,0,0,0,-0.0234,-0.0235,-0.0244,-0.023,-0.0228,-0.0228,-0.0226,-0.0225,-0.0224,-0.0225,-0.0207,-0.0204,-0.0192,-0.0173,-0.0168,-0.0175,-0.0166,-0.0121,-0.012,-0.012,-0.0157,-0.0159,-0.0161,0,0,0,0,0,-0.0234,-0.0242,-0.0245,-0.0245,-0.024,-0.0228,-0.0226,-0.0223,-0.0224,-0.0225,-0.0212,-0.0205,-0.0168,-0.0171,-0.0166,-0.0172,-0.0121,-0.012,-0.012,-0.0156,-0.0158,-0.016,0,0,0,0,0,0,-0.0247,-0.0243,-0.0246,-0.0253,-0.0245,-0.0229,-0.0229,-0.0225,-0.0216,-0.0217,-0.0199,-0.0195,-0.0182,-0.0168,-0.0172,-0.0155,-0.0144,-0.0143,-0.0173,-0.0176,-0.0177,-0.0188,-0.0164,0,0,0,0,0,-0.0254,-0.026,-0.0251,-0.0257,-0.0254,-0.0243,-0.0239,-0.0236,-0.0222,-0.022,-0.0206,-0.019,-0.0174,-0.0168,-0.015,-0.0139,-0.0108,-0.0139,-0.0141,-0.0143,-0.0147,-0.0102,-0.01,-0.0118,-0.0118,-0.0118,0,0,-0.0261,-0.0259,-0.0264,-0.026,-0.0254,-0.0258,-0.0242,-0.0237,-0.0242,-0.0215,-0.0215,-0.0193,-0.0171,-0.0161,-0.0155,-0.0153,-0.012,-0.0143,-0.0145,-0.0148,-0.0101,-0.0099,-0.0098,-0.0118,-0.0118,-0.0118,0,0,-0.0276,-0.0275,-0.0287,-0.0283,-0.0276,-0.0268,-0.0269,-0.0254,-0.0251,-0.0243,-0.0225,-0.0206,-0.0186,-0.0172,-0.0162,-0.0161,-0.0129,-0.0157,-0.018,-0.0136,-0.0134,-0.0132,-0.0084,-0.0078,-0.0162,-0.0162,-0.0162,0,-0.0286,-0.0302,-0.0287,-0.0296,-0.0297,-0.0276,-0.0288,-0.0279,-0.0262,-0.0254,-0.025,-0.0208,-0.0193,-0.0175,-0.0182,-0.0167,-0.0133,-0.0176,-0.0139,-0.0136,-0.0133,-0.0085,-0.0077,-0.0164,-0.0163,-0.0163,-0.0163,0,-0.0309,-0.0324,-0.0326,-0.0336,-0.0333,-0.0335,-0.0323,-0.0316,-0.0307,-0.0294,-0.027,-0.0239,-0.0215,-0.0209,-0.0201,-0.0176,-0.0154,-0.0144,-0.0136,-0.0134,-0.0083,-0.0074,-0.0166,-0.0165,-0.0165,-0.0165,0,0,-0.0323,-0.0342,-0.0344,-0.0358,-0.0355,-0.0353,-0.0356,-0.0348,-0.0342,-0.0321,-0.0306,-0.0284,-0.0257,-0.0244,-0.0218,-0.0189,-0.0145,-0.0167,-0.0164,-0.0125,-0.004,-0.0057,-0.0048,-0.0127,-0.0126,-0.0125,-0.001,0,-0.0347,-0.0379,-0.0379,-0.0404,-0.0419,-0.0401,-0.0403,-0.039,-0.037,-0.0346,-0.0308,-0.0283,-0.0272,-0.0255,-0.0225,-0.016,-0.0125,-0.0177,-0.0043,-0.0039,-0.0058,-0.004,-0.0121,-0.0003,-0.0001,0.0,0.0001,0,-0.0373,-0.0388,-0.0427,-0.044,-0.0442,-0.0453,-0.0442,-0.044,-0.0402,-0.038,-0.0345,-0.0307,-0.026,-0.0249,-0.0143,-0.0174,-0.0117,-0.0068,-0.0062,-0.006,-0.004,-0.0005,0.0017,0.0016,0.0015,0.0014,0.0013,0,-0.0395,-0.0421,-0.0455,-0.0461,-0.0472,-0.0479,-0.0479,-0.0454,-0.0443,-0.0397,-0.0373,-0.0309,-0.0266,-0.019,-0.0104,-0.0115,0.0021,0.0025,0.0069,0.0069,0.0066,0.0062,0.01,0.01,0.01,0.01,0.0099,0,-0.0423,-0.0447,-0.047,-0.0487,-0.051,-0.0505,-0.0514,-0.0497,-0.0464,-0.0445,-0.0392,-0.0352,-0.025,-0.0166,-0.0092,0.0015,0.0037,0.007,0.0097,0.0048,0.0042,0.0073,0.0068,0.0104,0.0103,0.0102,0.0101,0,-0.0448,-0.0469,-0.0503,-0.0521,-0.0529,-0.0544,-0.0546,-0.0541,-0.0506,-0.0475,-0.046,-0.0368,-0.0259,-0.0155,-0.0015,0.0033,0.0135,0.0166,0.0113,0.0135,0.0154,0.0146,0.0235,0.0236,0.0236,0.0236,0.0237,0,-0.0464,-0.0489,-0.0528,-0.0552,-0.0567,-0.0585,-0.0595,-0.0569,-0.0555,-0.0485,-0.0463,-0.0358,-0.0292,-0.0091,0.0004,0.0158,0.0164,0.0221,0.0174,0.015,0.0168,0.016,0.0151,0.0237,0.0237,0.0237,0.0237,0,-0.0484,-0.0506,-0.0534,-0.0585,-0.0612,-0.0627,-0.0633,-0.062,-0.0578,-0.0547,-0.0447,-0.0347,-0.0223,-0.0087,0.003,0.0132,0.0186,0.0225,0.0224,0.018,0.0153,0.0169,0.016,0.0238,0.0238,0.0238,0.0238,0,-0.0491,-0.0519,-0.0567,-0.0606,-0.0644,-0.0656,-0.0655,-0.0618,-0.0591,-0.0503,-0.0471,-0.0337,-0.0253,-0.01,0.0008,0.0106,0.0122,0.0145,0.0149,0.0149,0.0073,0.0023,0.0096,0,0,0,0,0,-0.0487,-0.0532,-0.058,-0.0625,-0.0662,-0.0679,-0.0673,-0.0658,-0.0613,-0.0542,-0.05,-0.0384,-0.0211,-0.0131,-0.0033,-0.0008,0.0122,0.0106,0.0145,0.0244,0.0243,0.0164,0,0,0,0,0,0,-0.0492,-0.0548,-0.0583,-0.0631,-0.0662,-0.0691,-0.0686,-0.0655,-0.06,-0.0543,-0.0444,-0.0379,-0.0208,-0.0271,-0.0039,-0.0009,0.0025,0.0193,0.0195,0.0245,0.0244,0.0243,0.0162,0,0,0,0,0]}]]